NVIR · Horizon Kinetics Energy and Remediation ETF ETF
$40.62
-0.19 (-0.46%)
At close · Sep 4
Daily short-sale volume published by FINRA from its trade-reporting facilities. It measures how many shares were sold short each day as a share of total volume — a daily flow, not the total outstanding short position.
Short Volume
| Date | Short Volume | Short Exempt | Total Volume | Short % |
|---|---|---|---|---|
| 2026-09-03 | 101 | 0 | 494 | 20.4% |
| 2026-09-02 | 7 | 0 | 28 | 24.6% |
| 2026-08-27 | 100 | 0 | 937 | 10.7% |
| 2026-08-26 | 10 | 0 | 230 | 4.3% |
| 2026-08-25 | 10 | 0 | 16 | 61.9% |
| 2026-08-24 | 3 | 0 | 15 | 19.8% |
| 2026-08-18 | 37 | 0 | 50 | 73.9% |
| 2026-08-14 | 1 | 0 | 204 | 0.5% |
| 2026-08-13 | 2 | 0 | 6 | 32.5% |
| 2026-08-12 | 1 | 0 | 3 | 31.7% |
| 2026-08-07 | 3 | 0 | 117 | 2.6% |
| 2026-08-05 | 6 | 0 | 13 | 45.4% |
| 2026-08-04 | 3 | 0 | 26 | 11.5% |
| 2026-08-03 | 1 | 0 | 86 | 1.2% |
| 2026-07-29 | 65 | 0 | 77 | 84.7% |
| 2026-07-23 | 10 | 0 | 11 | 89.3% |
| 2026-07-17 | 3 | 0 | 120 | 2.5% |
| 2026-07-10 | 26 | 0 | 27 | 95.1% |
| 2026-06-23 | 6 | 0 | 47 | 12.8% |
| 2026-06-18 | 2 | 0 | 379 | 0.5% |
| 2026-06-15 | 2 | 0 | 117 | 1.7% |
| 2026-06-08 | 3 | 0 | 4 | 85.2% |
Showing 1–22 of 22 days